MOLNIYA 1-87

Last updated on Jan. 23, 2020, 4:40 a.m. UTC

1 22949U 93079A   20021.64704851  .00001305  00000-0  25022-1 0  9995
2 22949  63.3729 188.8244 6877687 289.7565  11.7801  2.02861681191478
UTC
Height (km)
Latitude
Longitude
Inclination
Orbital Period
UTC large
Height (km)
Speed (km/s)
/
Latitude / Longitude
Inclination (degrees)
Orbital Period (minutes)
Azimuth
Elevation
Range (km)
Doppler Factor
iOS Compass Heading
iOS Angle

Next 30 passes for location: Hong Kong

Rise time Rise Azimuth (degrees) Set time Set Azimuth (degrees) Duration Max altitude (degrees)

No matching passes for this satellites